[Iaude] MPEC E150: 2024 EE3 [a=2.36,e=0.66,i=17.2,H=23.4]

mpec at cfa.harvard.edu mpec at cfa.harvard.edu
Mon Mar 11 21:37:43 EDT 2024


M.P.E.C. 2024-E150                               Issued 2024 March 12, 01:36 UT

     The Minor Planet Electronic Circulars contain information on unusual
         minor planets, routine data on comets and natural satellites,
         and occasional editorial announcements.  They are published
    on behalf of Division F of the International Astronomical Union by the
          Minor Planet Center, Smithsonian Astrophysical Observatory,
                          Cambridge, MA 02138, U.S.A.
			  
             Prepared using the Tamkin Foundation Computer Network

                              MPC at CFA.HARVARD.EDU
            URL https://www.minorplanetcenter.net/    ISSN 1523-6714

                                    2024 EE3                                    


Observations:
     K24E03E* C2024 03 10.34464509 30 05.083+23 51 56.38               VEE150V00
     K24E03E  C2024 03 10.35026509 30 06.944+23 52 08.11         21.51GVEE150V00
     K24E03E  C2024 03 10.35586409 30 08.784+23 52 19.70         21.41GVEE150V00
     K24E03E  C2024 03 10.36148109 30 10.656+23 52 31.15         21.56GVEE150V00
     K24E03E KC2024 03 10.42652 09 30 32.30 +23 54 43.5          21.7 RVEE150291
     K24E03E KC2024 03 10.43214 09 30 34.15 +23 54 55.0          21.5 RVEE150291
     K24E03E KC2024 03 11.10606 09 34 21.61 +24 17 26.0          21.6 RVEE150291
     K24E03E KC2024 03 11.11134 09 34 23.25 +24 17 36.5          21.6 RVEE150291
     K24E03E KC2024 03 11.11661 09 34 24.89 +24 17 47.3          21.0 RVEE150291
     K24E03E KC2024 03 11.11975709 34 25.61 +24 17 51.3          21.5 GXEE150858
     K24E03E KC2024 03 11.13293509 34 28.99 +24 18 16.4          21.5 GVEE150H21
     K24E03E KC2024 03 11.13726909 34 30.33 +24 18 24.6          21.4 GVEE150H21
     K24E03E KC2024 03 11.14295209 34 32.07 +24 18 35.5          21.4 GVEE150H21
     K24E03E KC2024 03 11.14578009 34 33.63 +24 18 42.2          21.3 GXEE150858
     K24E03E HB2024 03 11.86094 09 38 16.98 +24 40 07.4          21.5 GVEE150204
     K24E03E KB2024 03 11.89310 09 38 26.36 +24 41 03.0                VEE150204

Observer details:
204 Schiaparelli Observatory.  Observer L. Buzzi.  0.84-m f/3.5 reflector +
    CMO.
291 LPL/Spacewatch II.  Observer T. H. Bressi.  1.8-m f/2.7 reflector + CCD.
858 Tebbutt Observatory, Edgewood.  Observer F. B. Zoltowski.  0.51-m f/8.1
    Schmidt-Cassegrain + CCD.
H21 Astronomical Research Observatory, Westfield.  Observer R. Holmes.
    Measurers T. Linder, R. Holmes, L. Horn.  1.3-m f/4.0 astrograph + CCD.
V00 Kitt Peak-Bok.  Observer M. J. Brucker.  Measurers M. J. Brucker, C. E.
    Woodward, T. Beuden, V. F. Carvajal, D. Fay, J. B. Fazekas, D. C. Fuls, A.
    R. Gibbs, H. Groeller, J. K. Hogan, R. A. Kowalski, S. M. Larson, C.
    Lejoly, G. J. Leonard, R. A. Mastaler, R. S. McMillan, D. Rankin, R. L.
    Seaman, F. C. Shelly, K. W. Wierzchos.  2.25-m reflector + 4x4K mosaic
    CCD.

Orbital elements:
2024 EE3                                                 Earth MOID = 0.0661 AU
Epoch 2024 Mar. 31.0 TT = JDT 2460400.5                 MPC                     
M  21.56243              (2000.0)            P               Q                  
n   0.27155119     Peri.  287.60270     +0.04005395     -0.99368575             
a   2.3617554      Node   159.23540     +0.99162285     +0.02664020             
e   0.6567163      Incl.   17.19474     +0.12279982     +0.10899049             
P   3.63           H   23.46          G   0.15           U   9                  
Residuals in seconds of arc
240310 V00  0.0   0.1-    240311 291  0.4+  0.1-    240311 H21  0.1-  0.0
240310 V00  0.0   0.0     240311 291  0.3+  0.0     240311 858  0.6-  0.2-
240310 V00  0.1-  0.1+    240311 291  0.3+  0.5+    240311 204  0.3+  0.3-
240310 V00  0.1+  0.0     240311 858  0.1-  0.5-    240311 204  0.0   0.2-
240310 291  0.4+  0.1+    240311 H21  0.0   0.1+
240310 291  0.0   0.3+    240311 H21  0.1+  0.0

Ephemeris:
2024 EE3                 a,e,i = 2.36, 0.66, 17                  q = 0.8108
Date    TT    R. A. (2000) Decl.     Delta      r    Elong.  Phase     V
2024 02 11    02 16 33.8 -35 24 33   0.1598  0.9329    65.8   105.2    23.2
...
2024 02 26    07 03 18.0 +00 57 23   0.1028  1.0552   127.2    48.4    20.5
...
2024 03 05    08 51 31.8 +19 11 06   0.1610  1.1281   145.4    29.9    21.1
...
2024 03 11    09 33 45.1 +24 14 11   0.2225  1.1847   146.2    27.8    21.8
2024 03 12    09 38 58.3 +24 44 17   0.2335  1.1943   145.9    27.8    21.9
2024 03 13    09 43 48.9 +25 10 28   0.2447  1.2039   145.6    27.8    22.0
...
2024 03 19    10 06 54.7 +26 48 14   0.3150  1.2618   143.2    28.2    22.7
...
2024 03 27    10 27 52.9 +27 25 28   0.4157  1.3397   139.0    29.2    23.5
...
2024 04 11    10 54 11.0 +26 30 08   0.6233  1.4853   130.6    30.8    24.6

A. U. Tomatic                (C) Copyright 2024 MPC           M.P.E.C. 2024-E150





More information about the Iaude mailing list